Time,TemperatureF,DewpointF,PressureIn,WindDirection,WindDirectionDegrees,WindSpeedMPH,WindSpeedGustMPH,Humidity,HourlyPrecipIn,Conditions,Clouds,dailyrainin,SoftwareType,DateUTC
2013-02-21 00:00:00,27.7,13.2,17.60,WSW,248,0.0,0.0,54,0.00,,OVC055,0.00,VWS V14.01,2013-02-21 05:00:00,
2013-02-21 00:05:00,27.7,13.2,17.60,WSW,237,0.0,0.0,54,0.00,,OVC055,0.00,VWS V14.01,2013-02-21 05:05:00,
2013-02-21 00:10:00,27.7,13.2,17.60,WSW,249,0.0,0.0,54,0.00,,OVC055,0.00,VWS V14.01,2013-02-21 05:10:00,
2013-02-21 00:15:00,27.5,13.1,17.60,WSW,256,0.0,0.0,54,0.00,,OVC055,0.00,VWS V14.01,2013-02-21 05:15:00,
2013-02-21 00:20:00,27.5,13.1,17.60,WSW,258,0.0,0.0,54,0.00,,OVC055,0.00,VWS V14.01,2013-02-21 05:20:00,
2013-02-21 00:25:00,27.3,12.9,17.60,West,260,0.0,0.0,54,0.00,,OVC055,0.00,VWS V14.01,2013-02-21 05:25:00,
2013-02-21 00:30:00,27.3,12.9,17.60,SW,231,0.0,0.0,54,0.00,,OVC055,0.00,VWS V14.01,2013-02-21 05:30:00,
2013-02-21 00:35:00,27.3,12.9,17.60,WSW,244,0.0,0.0,54,0.00,,OVC055,0.00,VWS V14.01,2013-02-21 05:35:00,
2013-02-21 00:40:00,27.3,12.9,17.60,West,259,0.0,0.0,54,0.00,,OVC055,0.00,VWS V14.01,2013-02-21 05:40:00,
2013-02-21 00:45:00,27.1,12.7,17.60,SW,234,0.0,0.0,54,0.00,,OVC055,0.00,VWS V14.01,2013-02-21 05:45:00,
2013-02-21 00:50:00,27.3,12.9,17.60,WSW,257,0.0,0.0,54,0.00,,OVC055,0.00,VWS V14.01,2013-02-21 05:50:00,
2013-02-21 00:55:00,27.1,12.7,17.60,WSW,257,0.0,0.0,54,0.00,,OVC055,0.00,VWS V14.01,2013-02-21 05:55:00,
2013-02-21 01:00:00,27.1,12.7,17.60,WSW,244,0.0,0.0,54,0.00,,OVC055,0.00,VWS V14.01,2013-02-21 06:00:00,
2013-02-21 01:05:00,27.1,12.7,17.60,WSW,244,0.0,0.0,54,0.00,,OVC055,0.00,VWS V14.01,2013-02-21 06:05:00,
2013-02-21 01:10:00,27.0,12.6,17.60,WSW,254,0.0,0.0,54,0.00,,OVC055,0.00,VWS V14.01,2013-02-21 06:10:00,
2013-02-21 01:15:00,27.0,12.6,17.60,SW,227,0.0,0.0,54,0.00,,OVC055,0.00,VWS V14.01,2013-02-21 06:15:00,
2013-02-21 01:20:00,27.0,12.6,17.60,WSW,254,0.0,0.0,54,0.00,,OVC055,0.00,VWS V14.01,2013-02-21 06:20:00,
2013-02-21 01:25:00,27.0,12.6,17.60,WSW,246,0.0,0.0,54,0.00,,OVC055,0.00,VWS V14.01,2013-02-21 06:25:00,
2013-02-21 01:30:00,27.0,12.6,17.60,West,265,0.0,0.0,54,0.00,,OVC055,0.00,VWS V14.01,2013-02-21 06:30:00,
2013-02-21 01:35:00,27.0,12.6,17.60,WSW,253,0.0,0.0,54,0.00,,OVC055,0.00,VWS V14.01,2013-02-21 06:35:00,
2013-02-21 01:40:00,27.0,12.6,17.60,WSW,248,0.0,0.0,54,0.00,,OVC055,0.00,VWS V14.01,2013-02-21 06:40:00,
2013-02-21 01:45:00,27.0,12.6,17.60,WSW,250,0.0,0.0,54,0.00,,OVC055,0.00,VWS V14.01,2013-02-21 06:45:00,
2013-02-21 01:50:00,26.8,12.4,17.60,WSW,255,0.0,0.0,54,0.00,,OVC055,0.00,VWS V14.01,2013-02-21 06:50:00,
2013-02-21 01:55:00,26.8,12.4,17.60,WSW,238,0.0,0.0,54,0.00,,OVC055,0.00,VWS V14.01,2013-02-21 06:55:00,
2013-02-21 02:00:00,26.8,12.4,17.60,WSW,248,0.0,0.0,54,0.00,,OVC055,0.00,VWS V14.01,2013-02-21 07:00:00,
2013-02-21 02:05:00,26.6,13.4,17.60,WSW,257,0.0,0.0,57,0.00,,OVC055,0.00,VWS V14.01,2013-02-21 07:05:00,
2013-02-21 02:10:00,26.6,13.4,17.60,WSW,246,0.0,0.0,57,0.00,,OVC055,0.00,VWS V14.01,2013-02-21 07:10:00,
2013-02-21 02:15:00,26.6,13.4,17.60,WSW,241,0.0,0.0,57,0.00,,OVC055,0.00,VWS V14.01,2013-02-21 07:15:00,
2013-02-21 02:20:00,26.6,13.4,17.60,WSW,249,0.0,0.0,57,0.00,,OVC055,0.00,VWS V14.01,2013-02-21 07:20:00,
2013-02-21 02:25:00,26.6,13.4,17.60,SW,236,0.0,0.0,57,0.00,,OVC055,0.00,VWS V14.01,2013-02-21 07:25:00,
2013-02-21 02:30:00,26.6,13.4,17.60,WSW,258,0.0,0.0,57,0.00,,OVC055,0.00,VWS V14.01,2013-02-21 07:30:00,
2013-02-21 02:35:00,26.4,13.3,17.60,WSW,246,0.0,0.0,57,0.00,,OVC055,0.00,VWS V14.01,2013-02-21 07:35:00,
2013-02-21 02:40:00,26.4,13.3,17.60,SW,234,0.0,0.0,57,0.00,,OVC055,0.00,VWS V14.01,2013-02-21 07:40:00,
2013-02-21 02:45:00,26.4,13.3,17.60,WSW,257,0.0,0.0,57,0.00,,OVC055,0.00,VWS V14.01,2013-02-21 07:45:00,
2013-02-21 02:50:00,26.4,13.3,17.60,West,259,0.0,0.0,57,0.00,,OVC055,0.00,VWS V14.01,2013-02-21 07:50:00,
2013-02-21 02:55:00,26.2,13.1,17.60,WSW,246,0.0,0.0,57,0.00,,OVC055,0.00,VWS V14.01,2013-02-21 07:55:00,
2013-02-21 03:00:00,26.2,13.1,17.60,WSW,247,0.0,0.0,57,0.00,,OVC055,0.00,VWS V14.01,2013-02-21 08:00:00,
2013-02-21 03:05:00,26.2,13.1,17.60,West,265,0.0,0.0,57,0.00,,OVC055,0.00,VWS V14.01,2013-02-21 08:05:00,
2013-02-21 03:10:00,26.2,13.1,17.60,SW,233,0.0,0.0,57,0.00,,OVC055,0.00,VWS V14.01,2013-02-21 08:10:00,
2013-02-21 03:15:00,26.2,13.1,17.60,WSW,255,0.0,0.0,57,0.00,,OVC055,0.00,VWS V14.01,2013-02-21 08:15:00,
2013-02-21 03:20:00,26.1,12.9,17.60,West,262,0.0,0.0,57,0.00,,OVC055,0.00,VWS V14.01,2013-02-21 08:20:00,
2013-02-21 03:25:00,26.1,12.9,17.60,WSW,253,0.0,0.0,57,0.00,,OVC055,0.00,VWS V14.01,2013-02-21 08:25:00,
2013-02-21 03:30:00,26.1,12.9,17.60,SW,229,0.0,0.0,57,0.00,,OVC055,0.00,VWS V14.01,2013-02-21 08:30:00,
2013-02-21 03:35:00,26.1,12.9,17.60,WSW,258,0.0,0.0,57,0.00,,OVC055,0.00,VWS V14.01,2013-02-21 08:35:00,
2013-02-21 03:40:00,26.1,12.9,17.60,WSW,253,0.0,0.0,57,0.00,,OVC055,0.00,VWS V14.01,2013-02-21 08:40:00,
2013-02-21 03:45:00,26.1,12.9,17.60,WSW,247,0.0,0.0,57,0.00,,OVC055,0.00,VWS V14.01,2013-02-21 08:45:00,
2013-02-21 03:50:00,26.1,12.9,17.60,WSW,244,0.0,0.0,57,0.00,,OVC055,0.00,VWS V14.01,2013-02-21 08:50:00,
2013-02-21 03:55:00,26.1,12.9,17.60,SW,217,0.0,0.0,57,0.00,,OVC055,0.00,VWS V14.01,2013-02-21 08:55:00,
2013-02-21 04:00:00,25.9,12.8,17.60,WSW,258,0.0,0.0,57,0.00,,OVC055,0.00,VWS V14.01,2013-02-21 09:00:00,
2013-02-21 04:05:00,26.1,12.9,17.60,WSW,247,0.0,0.0,57,0.00,,OVC055,0.00,VWS V14.01,2013-02-21 09:05:00,
2013-02-21 04:10:00,25.9,12.8,17.60,WSW,251,0.0,0.0,57,0.00,,OVC055,0.00,VWS V14.01,2013-02-21 09:10:00,
2013-02-21 04:15:00,25.9,12.8,17.60,West,259,0.0,0.0,57,0.00,,OVC055,0.00,VWS V14.01,2013-02-21 09:15:00,
2013-02-21 04:20:00,26.1,12.9,17.60,WSW,239,0.0,0.0,57,0.00,,OVC055,0.00,VWS V14.01,2013-02-21 09:20:00,
2013-02-21 04:25:00,25.9,12.8,17.60,SW,229,0.0,0.0,57,0.00,,OVC055,0.00,VWS V14.01,2013-02-21 09:25:00,
2013-02-21 04:30:00,25.7,12.6,17.60,WSW,242,0.0,0.0,57,0.00,,OVC055,0.00,VWS V14.01,2013-02-21 09:30:00,
2013-02-21 04:35:00,25.7,12.6,17.60,SW,234,0.0,0.0,57,0.00,,OVC055,0.00,VWS V14.01,2013-02-21 09:35:00,
2013-02-21 04:40:00,25.7,12.6,17.60,WSW,256,0.0,0.0,57,0.00,,OVC055,0.00,VWS V14.01,2013-02-21 09:40:00,
2013-02-21 04:45:00,25.5,12.4,17.60,West,261,0.0,0.0,57,0.00,,OVC055,0.00,VWS V14.01,2013-02-21 09:45:00,
2013-02-21 04:50:00,25.5,12.4,17.60,WSW,244,0.0,0.0,57,0.00,,OVC055,0.00,VWS V14.01,2013-02-21 09:50:00,
2013-02-21 04:55:00,25.3,12.2,17.60,WSW,256,0.0,0.0,57,0.00,,OVC055,0.00,VWS V14.01,2013-02-21 09:55:00,
2013-02-21 05:00:00,25.5,12.4,17.60,WSW,248,0.0,0.0,57,0.00,,OVC055,0.00,VWS V14.01,2013-02-21 10:00:00,
2013-02-21 05:05:00,25.5,12.4,17.60,WSW,252,0.0,0.0,57,0.00,,OVC055,0.00,VWS V14.01,2013-02-21 10:05:00,
2013-02-21 05:10:00,25.5,12.4,17.60,SW,236,0.0,0.0,57,0.00,,OVC055,0.00,VWS V14.01,2013-02-21 10:10:00,
2013-02-21 05:15:00,25.5,12.4,17.60,WSW,237,0.0,0.0,57,0.00,,OVC055,0.00,VWS V14.01,2013-02-21 10:15:00,
2013-02-21 05:20:00,25.5,12.4,17.60,SW,231,0.0,0.0,57,0.00,,OVC055,0.00,VWS V14.01,2013-02-21 10:20:00,
2013-02-21 05:25:00,25.5,12.4,17.60,WSW,253,0.0,0.0,57,0.00,,OVC055,0.00,VWS V14.01,2013-02-21 10:25:00,
2013-02-21 05:30:00,25.5,12.4,17.60,WSW,237,0.0,0.0,57,0.00,,OVC055,0.00,VWS V14.01,2013-02-21 10:30:00,
2013-02-21 05:35:00,25.5,12.4,17.60,WSW,249,0.0,0.0,57,0.00,,OVC055,0.00,VWS V14.01,2013-02-21 10:35:00,
2013-02-21 05:40:00,25.5,12.4,17.60,WSW,249,0.0,0.0,57,0.00,,OVC055,0.00,VWS V14.01,2013-02-21 10:40:00,
2013-02-21 05:45:00,25.5,12.4,17.60,WSW,255,0.0,0.0,57,0.00,,OVC055,0.00,VWS V14.01,2013-02-21 10:45:00,
2013-02-21 05:50:00,25.5,12.4,17.60,WSW,256,0.0,0.0,57,0.00,,OVC055,0.00,VWS V14.01,2013-02-21 10:50:00,
2013-02-21 05:55:00,25.5,12.4,17.60,SW,233,0.0,0.0,57,0.00,,OVC055,0.00,VWS V14.01,2013-02-21 10:55:00,
2013-02-21 06:00:00,25.5,12.4,17.60,West,261,0.0,0.0,57,0.00,,OVC055,0.00,VWS V14.01,2013-02-21 11:00:00,
2013-02-21 06:05:00,25.5,12.4,17.60,WSW,255,0.0,0.0,57,0.00,,OVC055,0.00,VWS V14.01,2013-02-21 11:05:00,
2013-02-21 06:10:00,25.5,12.4,17.60,WSW,249,0.0,0.0,57,0.00,,OVC055,0.00,VWS V14.01,2013-02-21 11:10:00,
2013-02-21 06:15:00,25.3,12.2,17.60,WSW,250,0.0,0.0,57,0.00,,OVC055,0.00,VWS V14.01,2013-02-21 11:15:00,
2013-02-21 06:20:00,25.5,12.4,17.60,WSW,248,0.0,0.0,57,0.00,,OVC055,0.00,VWS V14.01,2013-02-21 11:20:00,
2013-02-21 06:24:00,25.5,12.4,17.60,WSW,240,0.0,0.0,57,0.00,,OVC055,0.00,VWS V14.01,2013-02-21 11:24:00,
2013-02-21 06:29:00,25.5,12.4,17.60,WSW,257,0.0,0.0,57,0.00,,OVC055,0.00,VWS V14.01,2013-02-21 11:29:00,
2013-02-21 06:34:00,25.3,12.2,17.60,West,265,0.0,0.0,57,0.00,,OVC055,0.00,VWS V14.01,2013-02-21 11:34:00,
2013-02-21 06:39:00,25.3,12.2,17.60,WSW,249,0.0,0.0,57,0.00,,OVC055,0.00,VWS V14.01,2013-02-21 11:39:00,
2013-02-21 06:44:00,25.3,12.2,17.60,WSW,251,0.0,0.0,57,0.00,,OVC055,0.00,VWS V14.01,2013-02-21 11:44:00,
2013-02-21 06:49:00,25.3,12.2,17.60,WSW,253,0.0,0.0,57,0.00,,OVC055,0.00,VWS V14.01,2013-02-21 11:49:00,
2013-02-21 06:54:00,25.3,12.2,17.60,WSW,255,0.0,0.0,57,0.00,,OVC055,0.00,VWS V14.01,2013-02-21 11:54:00,
2013-02-21 06:59:00,25.3,12.2,17.60,WSW,254,0.0,0.0,57,0.00,,OVC055,0.00,VWS V14.01,2013-02-21 11:59:00,
2013-02-21 07:04:00,25.3,12.2,17.60,WSW,246,0.0,0.0,57,0.00,,OVC055,0.00,VWS V14.01,2013-02-21 12:04:00,
2013-02-21 07:09:00,25.5,12.4,17.60,WSW,252,0.0,0.0,57,0.00,,OVC055,0.00,VWS V14.01,2013-02-21 12:09:00,
2013-02-21 07:14:00,25.7,12.6,17.60,WSW,238,0.0,0.0,57,0.00,,OVC055,0.00,VWS V14.01,2013-02-21 12:14:00,
2013-02-21 07:19:00,25.7,12.6,17.60,WSW,249,0.0,0.0,57,0.00,,OVC055,0.00,VWS V14.01,2013-02-21 12:19:00,
2013-02-21 07:24:00,25.7,12.6,17.60,WSW,253,0.0,0.0,57,0.00,,OVC055,0.00,VWS V14.01,2013-02-21 12:24:00,
2013-02-21 07:29:00,25.9,12.8,17.60,WSW,252,0.0,0.0,57,0.00,,OVC055,0.00,VWS V14.01,2013-02-21 12:29:00,
2013-02-21 07:34:00,25.9,12.8,17.60,West,259,0.0,0.0,57,0.00,,OVC055,0.00,VWS V14.01,2013-02-21 12:34:00,
2013-02-21 07:39:00,26.1,12.9,17.60,WSW,246,0.0,0.0,57,0.00,,OVC055,0.00,VWS V14.01,2013-02-21 12:39:00,
2013-02-21 07:44:00,26.1,12.9,17.60,WSW,238,0.0,0.0,57,0.00,,OVC055,0.00,VWS V14.01,2013-02-21 12:44:00,
2013-02-21 07:49:00,26.1,12.9,17.60,West,264,0.0,0.0,57,0.00,,OVC055,0.00,VWS V14.01,2013-02-21 12:49:00,
2013-02-21 07:54:00,26.2,13.1,17.60,WSW,247,0.0,0.0,57,0.00,,OVC055,0.00,VWS V14.01,2013-02-21 12:54:00,
2013-02-21 07:59:00,26.4,13.3,17.60,West,276,0.0,0.0,57,0.00,,OVC055,0.00,VWS V14.01,2013-02-21 12:59:00,
2013-02-21 08:04:00,26.6,13.4,17.60,SW,225,0.0,0.0,57,0.00,,OVC055,0.00,VWS V14.01,2013-02-21 13:04:00,
2013-02-21 08:09:00,26.6,13.4,17.60,WSW,254,0.0,0.0,57,0.00,,OVC055,0.00,VWS V14.01,2013-02-21 13:09:00,
2013-02-21 08:14:00,26.8,12.4,17.60,West,264,0.0,0.0,54,0.00,,OVC055,0.00,VWS V14.01,2013-02-21 13:14:00,
2013-02-21 08:19:00,26.8,12.4,17.60,WSW,258,0.0,0.0,54,0.00,,OVC055,0.00,VWS V14.01,2013-02-21 13:19:00,
2013-02-21 08:24:00,27.0,12.6,17.60,West,268,0.0,0.0,54,0.00,,OVC055,0.00,VWS V14.01,2013-02-21 13:24:00,
2013-02-21 08:29:00,27.0,12.6,17.60,WSW,258,0.0,0.0,54,0.00,,OVC055,0.00,VWS V14.01,2013-02-21 13:29:00,
2013-02-21 08:34:00,27.0,12.6,17.60,WSW,248,0.0,0.0,54,0.00,,OVC055,0.00,VWS V14.01,2013-02-21 13:34:00,
2013-02-21 08:39:00,27.1,12.7,17.60,West,265,0.0,0.0,54,0.00,,OVC055,0.00,VWS V14.01,2013-02-21 13:39:00,
2013-02-21 08:44:00,27.1,12.7,17.60,SW,233,0.0,0.0,54,0.00,,OVC055,0.00,VWS V14.01,2013-02-21 13:44:00,
2013-02-21 08:49:00,27.3,12.9,17.60,WSW,249,0.0,0.0,54,0.00,,OVC055,0.00,VWS V14.01,2013-02-21 13:49:00,
2013-02-21 08:54:00,27.3,12.9,17.60,West,267,0.0,0.0,54,0.00,,OVC055,0.00,VWS V14.01,2013-02-21 13:54:00,
2013-02-21 08:59:00,27.5,13.1,17.60,West,266,0.0,0.0,54,0.00,,OVC055,0.00,VWS V14.01,2013-02-21 13:59:00,
2013-02-21 09:04:00,27.3,12.9,17.60,WSW,258,0.0,0.0,54,0.00,,OVC055,0.00,VWS V14.01,2013-02-21 14:04:00,
2013-02-21 09:09:00,27.3,12.9,17.60,West,267,0.0,0.0,54,0.00,,OVC055,0.00,VWS V14.01,2013-02-21 14:09:00,
2013-02-21 09:14:00,27.7,13.2,17.60,West,280,0.0,0.0,54,0.00,,OVC055,0.00,VWS V14.01,2013-02-21 14:14:00,
2013-02-21 09:19:00,28.2,13.7,17.60,WSW,256,0.0,0.0,54,0.00,,OVC055,0.00,VWS V14.01,2013-02-21 14:19:00,
2013-02-21 09:24:00,28.9,14.4,17.60,West,260,0.0,0.0,54,0.00,,OVC055,0.00,VWS V14.01,2013-02-21 14:24:00,
2013-02-21 09:29:00,29.5,14.9,17.60,WSW,241,0.0,0.0,54,0.00,,OVC055,0.00,VWS V14.01,2013-02-21 14:29:00,
2013-02-21 09:34:00,29.5,14.9,17.60,WSW,253,0.0,0.0,54,0.00,,OVC055,0.00,VWS V14.01,2013-02-21 14:34:00,
2013-02-21 09:39:00,29.7,15.1,17.60,WSW,245,0.0,0.0,54,0.00,,OVC055,0.00,VWS V14.01,2013-02-21 14:39:00,
2013-02-21 09:44:00,29.5,14.9,17.60,SW,226,0.0,0.0,54,0.00,,OVC055,0.00,VWS V14.01,2013-02-21 14:44:00,
2013-02-21 09:49:00,29.7,15.1,17.60,WSW,256,0.0,0.0,54,0.00,,OVC055,0.00,VWS V14.01,2013-02-21 14:49:00,
2013-02-21 09:54:00,29.8,15.2,17.60,WSW,237,0.0,0.0,54,0.00,,OVC055,0.00,VWS V14.01,2013-02-21 14:54:00,
2013-02-21 09:59:00,29.8,15.2,17.60,SW,235,0.0,0.0,54,0.00,,OVC055,0.00,VWS V14.01,2013-02-21 14:59:00,
2013-02-21 10:04:00,30.2,15.6,17.60,WSW,250,0.0,0.0,54,0.00,,OVC055,0.00,VWS V14.01,2013-02-21 15:04:00,
2013-02-21 10:09:00,30.7,16.1,17.60,West,259,0.0,0.0,54,0.00,,OVC055,0.00,VWS V14.01,2013-02-21 15:09:00,
2013-02-21 10:14:00,30.6,15.9,17.60,WSW,258,0.0,0.0,54,0.00,,OVC055,0.00,VWS V14.01,2013-02-21 15:14:00,
2013-02-21 10:19:00,30.9,16.2,17.60,West,261,0.0,0.0,54,0.00,,OVC055,0.00,VWS V14.01,2013-02-21 15:19:00,
2013-02-21 10:24:00,31.3,16.6,17.60,West,261,0.0,0.0,54,0.00,,OVC055,0.00,VWS V14.01,2013-02-21 15:24:00,
2013-02-21 10:29:00,32.0,17.2,17.60,WSW,253,0.0,0.0,54,0.00,,OVC055,0.00,VWS V14.01,2013-02-21 15:29:00,
2013-02-21 10:34:00,32.2,17.4,17.60,WSW,258,0.0,0.0,54,0.00,,OVC055,0.00,VWS V14.01,2013-02-21 15:34:00,
2013-02-21 10:39:00,32.5,17.8,17.60,WSW,241,0.0,0.0,54,0.00,,OVC055,0.00,VWS V14.01,2013-02-21 15:39:00,
2013-02-21 10:44:00,32.4,17.6,17.60,West,263,0.0,0.0,54,0.00,,OVC055,0.00,VWS V14.01,2013-02-21 15:44:00,
2013-02-21 10:49:00,32.7,17.9,17.60,WSW,258,0.0,0.0,54,0.00,,OVC055,0.00,VWS V14.01,2013-02-21 15:49:00,
2013-02-21 10:54:00,33.4,18.6,17.60,WSW,249,0.0,0.0,54,0.00,,OVC055,0.00,VWS V14.01,2013-02-21 15:54:00,
2013-02-21 10:59:00,33.4,18.6,17.60,WSW,252,0.0,0.0,54,0.00,,OVC055,0.00,VWS V14.01,2013-02-21 15:59:00,
2013-02-21 11:04:00,33.3,18.4,17.60,WSW,251,0.0,0.0,54,0.00,,OVC055,0.00,VWS V14.01,2013-02-21 16:04:00,
2013-02-21 11:09:00,33.3,18.4,17.60,WSW,246,0.0,0.0,54,0.00,,OVC055,0.00,VWS V14.01,2013-02-21 16:09:00,
2013-02-21 11:14:00,33.6,18.8,17.60,SW,223,0.0,0.0,54,0.00,,OVC055,0.00,VWS V14.01,2013-02-21 16:14:00,
2013-02-21 11:19:00,33.8,17.6,17.60,SW,219,0.0,0.0,51,0.00,,OVC055,0.00,VWS V14.01,2013-02-21 16:19:00,
2013-02-21 11:24:00,33.4,18.6,17.60,WSW,239,0.0,0.0,54,0.00,,OVC055,0.00,VWS V14.01,2013-02-21 16:24:00,
2013-02-21 11:29:00,33.8,17.6,17.60,SW,233,0.0,0.0,51,0.00,,OVC055,0.00,VWS V14.01,2013-02-21 16:29:00,
2013-02-21 11:34:00,34.0,17.8,17.60,WSW,248,0.0,0.0,51,0.00,,OVC055,0.00,VWS V14.01,2013-02-21 16:34:00,
2013-02-21 11:39:00,34.0,17.8,17.60,WSW,237,0.0,0.0,51,0.00,,OVC055,0.00,VWS V14.01,2013-02-21 16:39:00,
2013-02-21 11:44:00,34.3,18.1,17.60,West,265,0.0,0.0,51,0.00,,OVC055,0.00,VWS V14.01,2013-02-21 16:44:00,
2013-02-21 11:49:00,34.0,17.8,17.60,West,260,0.0,0.0,51,0.00,,OVC055,0.00,VWS V14.01,2013-02-21 16:49:00,
2013-02-21 11:54:00,34.3,18.1,17.60,West,265,0.0,0.0,51,0.00,,OVC055,0.00,VWS V14.01,2013-02-21 16:54:00,
2013-02-21 11:59:00,34.9,18.6,17.60,WSW,244,0.0,0.0,51,0.00,,OVC055,0.00,VWS V14.01,2013-02-21 16:59:00,
2013-02-21 12:04:00,34.9,18.6,17.60,SW,234,0.0,0.0,51,0.00,,OVC055,0.00,VWS V14.01,2013-02-21 17:04:00,
2013-02-21 12:09:00,34.9,18.6,17.60,WSW,245,0.0,0.0,51,0.00,,OVC055,0.00,VWS V14.01,2013-02-21 17:09:00,
2013-02-21 12:14:00,34.9,18.6,17.60,West,265,0.0,0.0,51,0.00,,OVC055,0.00,VWS V14.01,2013-02-21 17:14:00,
2013-02-21 12:19:00,34.7,18.4,17.60,WSW,238,0.0,0.0,51,0.00,,OVC055,0.00,VWS V14.01,2013-02-21 17:19:00,
2013-02-21 12:24:00,34.9,18.6,17.60,SW,232,0.0,0.0,51,0.00,,OVC055,0.00,VWS V14.01,2013-02-21 17:24:00,
2013-02-21 12:29:00,35.1,18.8,17.60,WSW,249,0.0,0.0,51,0.00,,OVC055,0.00,VWS V14.01,2013-02-21 17:29:00,
2013-02-21 12:34:00,35.2,18.9,17.60,WSW,251,0.0,0.0,51,0.00,,OVC055,0.00,VWS V14.01,2013-02-21 17:34:00,
2013-02-21 12:39:00,35.6,19.3,17.60,SW,232,0.0,0.0,51,0.00,,OVC055,0.00,VWS V14.01,2013-02-21 17:39:00,
2013-02-21 12:44:00,35.8,19.4,17.60,West,275,0.0,0.0,51,0.00,,OVC055,0.00,VWS V14.01,2013-02-21 17:44:00,
2013-02-21 12:49:00,35.8,19.4,17.60,WSW,244,0.0,0.0,51,0.00,,OVC055,0.00,VWS V14.01,2013-02-21 17:49:00,
2013-02-21 12:54:00,36.0,19.6,17.60,SW,231,0.0,0.0,51,0.00,,OVC055,0.00,VWS V14.01,2013-02-21 17:54:00,
2013-02-21 12:59:00,36.1,19.8,17.60,WSW,248,0.0,0.0,51,0.00,,OVC055,0.00,VWS V14.01,2013-02-21 17:59:00,
2013-02-21 13:04:00,36.1,19.8,17.60,West,262,0.0,0.0,51,0.00,,OVC055,0.00,VWS V14.01,2013-02-21 18:04:00,
2013-02-21 13:09:00,36.0,19.6,17.60,West,262,0.0,0.0,51,0.00,,OVC055,0.00,VWS V14.01,2013-02-21 18:09:00,
2013-02-21 13:14:00,36.0,19.6,17.60,WSW,256,0.0,0.0,51,0.00,,OVC055,0.00,VWS V14.01,2013-02-21 18:14:00,
2013-02-21 13:19:00,36.5,20.1,17.60,WSW,258,0.0,0.0,51,0.00,,OVC055,0.00,VWS V14.01,2013-02-21 18:19:00,
2013-02-21 13:24:00,36.7,20.3,17.60,West,259,0.0,0.0,51,0.00,,OVC055,0.00,VWS V14.01,2013-02-21 18:24:00,
2013-02-21 13:29:00,36.1,19.8,17.60,WSW,248,0.0,0.0,51,0.00,,OVC055,0.00,VWS V14.01,2013-02-21 18:29:00,
2013-02-21 13:34:00,36.5,20.1,17.60,WSW,251,0.0,0.0,51,0.00,,OVC055,0.00,VWS V14.01,2013-02-21 18:34:00,
2013-02-21 13:39:00,36.9,20.4,17.60,WSW,254,0.0,0.0,51,0.00,,OVC055,0.00,VWS V14.01,2013-02-21 18:39:00,
2013-02-21 13:44:00,36.5,20.1,17.60,SW,236,0.0,0.0,51,0.00,,OVC055,0.00,VWS V14.01,2013-02-21 18:44:00,
2013-02-21 13:49:00,36.7,20.3,17.60,WSW,250,0.0,0.0,51,0.00,,OVC055,0.00,VWS V14.01,2013-02-21 18:49:00,
2013-02-21 13:54:00,36.9,20.4,17.60,West,264,0.0,0.0,51,0.00,,OVC055,0.00,VWS V14.01,2013-02-21 18:54:00,
2013-02-21 13:59:00,36.9,20.4,17.60,West,266,0.0,0.0,51,0.00,,OVC055,0.00,VWS V14.01,2013-02-21 18:59:00,
2013-02-21 14:04:00,36.7,20.3,17.60,WSW,243,0.0,0.0,51,0.00,,OVC055,0.00,VWS V14.01,2013-02-21 19:04:00,
2013-02-21 14:09:00,36.9,20.4,17.60,West,270,0.0,0.0,51,0.00,,OVC055,0.00,VWS V14.01,2013-02-21 19:09:00,
2013-02-21 14:14:00,37.0,20.6,17.60,WSW,240,0.0,0.0,51,0.00,,OVC055,0.00,VWS V14.01,2013-02-21 19:14:00,
2013-02-21 14:19:00,37.0,20.6,17.60,WSW,255,0.0,0.0,51,0.00,,OVC055,0.00,VWS V14.01,2013-02-21 19:19:00,
2013-02-21 14:24:00,36.5,20.1,17.60,West,272,0.0,0.0,51,0.00,,OVC055,0.00,VWS V14.01,2013-02-21 19:24:00,
2013-02-21 14:29:00,36.3,19.9,17.60,WSW,241,0.0,0.0,51,0.00,,OVC055,0.00,VWS V14.01,2013-02-21 19:29:00,
2013-02-21 14:34:00,35.8,19.4,17.60,WSW,254,0.0,0.0,51,0.00,,OVC055,0.00,VWS V14.01,2013-02-21 19:34:00,
2013-02-21 14:39:00,35.2,18.9,17.60,West,260,0.0,0.0,51,0.00,,OVC055,0.00,VWS V14.01,2013-02-21 19:39:00,
2013-02-21 14:44:00,34.9,18.6,17.60,WSW,257,0.0,0.0,51,0.00,,OVC055,0.00,VWS V14.01,2013-02-21 19:44:00,
2013-02-21 14:49:00,34.9,18.6,17.60,WSW,249,0.0,0.0,51,0.00,,OVC055,0.00,VWS V14.01,2013-02-21 19:49:00,
2013-02-21 14:54:00,34.7,18.4,17.60,WSW,248,0.0,0.0,51,0.00,,OVC055,0.00,VWS V14.01,2013-02-21 19:54:00,
2013-02-21 14:59:00,35.1,18.8,17.60,WSW,248,0.0,0.0,51,0.00,,OVC055,0.00,VWS V14.01,2013-02-21 19:59:00,
2013-02-21 15:04:00,35.1,18.8,17.60,SW,230,0.0,0.0,51,0.00,,OVC055,0.00,VWS V14.01,2013-02-21 20:04:00,
2013-02-21 15:09:00,35.1,18.8,17.60,WSW,255,0.0,0.0,51,0.00,,OVC055,0.00,VWS V14.01,2013-02-21 20:09:00,
2013-02-21 15:14:00,34.9,18.6,17.60,West,268,0.0,0.0,51,0.00,,OVC055,0.00,VWS V14.01,2013-02-21 20:14:00,
2013-02-21 15:19:00,35.1,18.8,17.60,West,279,0.0,0.0,51,0.00,,OVC055,0.00,VWS V14.01,2013-02-21 20:19:00,
2013-02-21 15:24:00,35.2,18.9,17.60,WSW,251,0.0,0.0,51,0.00,,OVC055,0.00,VWS V14.01,2013-02-21 20:24:00,
2013-02-21 15:29:00,35.1,18.8,17.60,West,266,0.0,0.0,51,0.00,,OVC055,0.00,VWS V14.01,2013-02-21 20:29:00,
2013-02-21 15:34:00,35.1,18.8,17.60,West,259,0.0,0.0,51,0.00,,OVC055,0.00,VWS V14.01,2013-02-21 20:34:00,
2013-02-21 15:39:00,35.1,18.8,17.60,West,261,0.0,0.0,51,0.00,,OVC055,0.00,VWS V14.01,2013-02-21 20:39:00,
2013-02-21 15:44:00,35.1,18.8,17.60,West,271,0.0,0.0,51,0.00,,OVC055,0.00,VWS V14.01,2013-02-21 20:44:00,
2013-02-21 15:49:00,35.4,19.1,17.60,West,272,0.0,0.0,51,0.00,,OVC055,0.00,VWS V14.01,2013-02-21 20:49:00,
2013-02-21 15:54:00,35.4,19.1,17.60,WSW,253,0.0,0.0,51,0.00,,OVC055,0.00,VWS V14.01,2013-02-21 20:54:00,
2013-02-21 15:59:00,35.2,18.9,17.60,West,259,0.0,0.0,51,0.00,,OVC055,0.00,VWS V14.01,2013-02-21 20:59:00,
2013-02-21 16:04:00,35.2,18.9,17.60,WSW,237,0.0,0.0,51,0.00,,OVC055,0.00,VWS V14.01,2013-02-21 21:04:00,
2013-02-21 16:09:00,35.2,18.9,17.60,SW,230,0.0,0.0,51,0.00,,OVC055,0.00,VWS V14.01,2013-02-21 21:09:00,
2013-02-21 16:14:00,35.4,19.1,17.60,West,261,0.0,0.0,51,0.00,,OVC055,0.00,VWS V14.01,2013-02-21 21:14:00,
2013-02-21 16:19:00,35.4,19.1,17.60,WSW,251,0.0,0.0,51,0.00,,OVC055,0.00,VWS V14.01,2013-02-21 21:19:00,
2013-02-21 16:24:00,35.2,18.9,17.60,West,262,0.0,0.0,51,0.00,,OVC055,0.00,VWS V14.01,2013-02-21 21:24:00,
2013-02-21 16:29:00,35.1,18.8,17.60,West,265,0.0,0.0,51,0.00,,OVC055,0.00,VWS V14.01,2013-02-21 21:29:00,
2013-02-21 16:34:00,35.2,18.9,17.60,West,261,0.0,0.0,51,0.00,,OVC055,0.00,VWS V14.01,2013-02-21 21:34:00,
2013-02-21 16:39:00,35.1,18.8,17.60,West,275,0.0,0.0,51,0.00,,OVC055,0.00,VWS V14.01,2013-02-21 21:39:00,
2013-02-21 16:44:00,35.1,18.8,17.60,West,261,0.0,0.0,51,0.00,,OVC055,0.00,VWS V14.01,2013-02-21 21:44:00,
2013-02-21 16:49:00,34.9,18.6,17.60,West,261,0.0,0.0,51,0.00,,OVC055,0.00,VWS V14.01,2013-02-21 21:49:00,
2013-02-21 16:54:00,34.9,18.6,17.60,West,266,0.0,0.0,51,0.00,,OVC055,0.00,VWS V14.01,2013-02-21 21:54:00,
2013-02-21 16:59:00,34.9,18.6,17.60,West,261,0.0,0.0,51,0.00,,OVC055,0.00,VWS V14.01,2013-02-21 21:59:00,
2013-02-21 17:04:00,34.7,18.4,17.60,WSW,251,0.0,0.0,51,0.00,,OVC055,0.00,VWS V14.01,2013-02-21 22:04:00,
2013-02-21 17:09:00,34.7,18.4,17.60,West,264,0.0,0.0,51,0.00,,OVC055,0.00,VWS V14.01,2013-02-21 22:09:00,
2013-02-21 17:14:00,34.5,18.3,17.60,West,268,0.0,0.0,51,0.00,,OVC055,0.00,VWS V14.01,2013-02-21 22:14:00,
2013-02-21 17:19:00,34.5,18.3,17.60,West,265,0.0,0.0,51,0.00,,OVC055,0.00,VWS V14.01,2013-02-21 22:19:00,
2013-02-21 17:24:00,34.3,18.1,17.60,West,259,0.0,0.0,51,0.00,,OVC055,0.00,VWS V14.01,2013-02-21 22:24:00,
2013-02-21 17:29:00,34.3,18.1,17.60,WSW,256,0.0,0.0,51,0.00,,OVC055,0.00,VWS V14.01,2013-02-21 22:29:00,
2013-02-21 17:34:00,34.3,18.1,17.60,WSW,251,0.0,0.0,51,0.00,,OVC055,0.00,VWS V14.01,2013-02-21 22:34:00,
2013-02-21 17:39:00,34.2,17.9,17.60,West,269,0.0,0.0,51,0.00,,OVC055,0.00,VWS V14.01,2013-02-21 22:39:00,
2013-02-21 17:44:00,34.0,17.8,17.60,WSW,248,0.0,0.0,51,0.00,,OVC055,0.00,VWS V14.01,2013-02-21 22:44:00,
2013-02-21 17:49:00,34.0,17.8,17.60,WSW,258,0.0,0.0,51,0.00,,OVC055,0.00,VWS V14.01,2013-02-21 22:49:00,
2013-02-21 17:54:00,34.0,17.8,17.60,SW,232,0.0,0.0,51,0.00,,OVC055,0.00,VWS V14.01,2013-02-21 22:54:00,
2013-02-21 17:59:00,34.0,17.8,17.60,West,260,0.0,0.0,51,0.00,,OVC055,0.00,VWS V14.01,2013-02-21 22:59:00,
2013-02-21 18:04:00,34.0,17.8,17.60,WSW,251,0.0,0.0,51,0.00,,OVC055,0.00,VWS V14.01,2013-02-21 23:04:00,
2013-02-21 18:09:00,34.0,17.8,17.60,WSW,258,0.0,0.0,51,0.00,,OVC055,0.00,VWS V14.01,2013-02-21 23:09:00,
2013-02-21 18:14:00,34.0,17.8,17.60,WSW,246,0.0,0.0,51,0.00,,OVC055,0.00,VWS V14.01,2013-02-21 23:14:00,
2013-02-21 18:19:00,34.0,17.8,17.60,SW,234,0.0,0.0,51,0.00,,OVC055,0.00,VWS V14.01,2013-02-21 23:19:00,
2013-02-21 18:24:00,34.0,17.8,17.60,WSW,254,0.0,0.0,51,0.00,,OVC055,0.00,VWS V14.01,2013-02-21 23:24:00,
2013-02-21 18:29:00,34.0,17.8,17.60,West,269,0.0,0.0,51,0.00,,OVC055,0.00,VWS V14.01,2013-02-21 23:29:00,
2013-02-21 18:34:00,34.0,17.8,17.60,WSW,254,0.0,0.0,51,0.00,,OVC055,0.00,VWS V14.01,2013-02-21 23:34:00,
2013-02-21 18:39:00,34.0,17.8,17.60,WSW,254,0.0,0.0,51,0.00,,OVC055,0.00,VWS V14.01,2013-02-21 23:39:00,
2013-02-21 18:44:00,34.0,17.8,17.60,West,259,0.0,0.0,51,0.00,,OVC055,0.00,VWS V14.01,2013-02-21 23:44:00,
2013-02-21 18:49:00,34.0,17.8,17.60,West,262,0.0,0.0,51,0.00,,OVC055,0.00,VWS V14.01,2013-02-21 23:49:00,
2013-02-21 18:54:00,34.0,17.8,17.60,West,259,0.0,0.0,51,0.00,,OVC055,0.00,VWS V14.01,2013-02-21 23:54:00,
2013-02-21 18:59:00,34.0,17.8,17.60,West,269,0.0,0.0,51,0.00,,OVC055,0.00,VWS V14.01,2013-02-21 23:59:00,
2013-02-21 19:04:00,34.0,17.8,17.60,West,271,0.0,0.0,51,0.00,,OVC055,0.00,VWS V14.01,2013-02-22 00:04:00,
2013-02-21 19:09:00,34.2,17.9,17.60,WSW,244,0.0,0.0,51,0.00,,OVC055,0.00,VWS V14.01,2013-02-22 00:09:00,
2013-02-21 19:14:00,34.2,17.9,17.60,WSW,248,0.0,0.0,51,0.00,,OVC055,0.00,VWS V14.01,2013-02-22 00:14:00,
2013-02-21 19:19:00,34.2,17.9,17.60,WSW,244,0.0,0.0,51,0.00,,OVC055,0.00,VWS V14.01,2013-02-22 00:19:00,
2013-02-21 19:24:00,34.0,17.8,17.60,West,261,0.0,0.0,51,0.00,,OVC055,0.00,VWS V14.01,2013-02-22 00:24:00,
2013-02-21 19:29:00,34.0,17.8,17.60,WSW,258,0.0,0.0,51,0.00,,OVC055,0.00,VWS V14.01,2013-02-22 00:29:00,
2013-02-21 19:34:00,33.8,17.6,17.60,WSW,245,0.0,0.0,51,0.00,,OVC055,0.00,VWS V14.01,2013-02-22 00:34:00,
2013-02-21 19:39:00,34.0,17.8,17.60,West,280,0.0,0.0,51,0.00,,OVC055,0.00,VWS V14.01,2013-02-22 00:39:00,
2013-02-21 19:44:00,33.8,17.6,17.60,WSW,257,0.0,0.0,51,0.00,,OVC055,0.00,VWS V14.01,2013-02-22 00:44:00,
2013-02-21 19:49:00,33.8,17.6,17.60,West,267,0.0,0.0,51,0.00,,OVC055,0.00,VWS V14.01,2013-02-22 00:49:00,
2013-02-21 19:54:00,33.8,17.6,17.60,West,259,0.0,0.0,51,0.00,,OVC055,0.00,VWS V14.01,2013-02-22 00:54:00,
2013-02-21 19:59:00,33.8,17.6,17.60,West,262,0.0,0.0,51,0.00,,OVC055,0.00,VWS V14.01,2013-02-22 00:59:00,
2013-02-21 20:04:00,33.8,17.6,17.60,West,265,0.0,0.0,51,0.00,,OVC055,0.00,VWS V14.01,2013-02-22 01:04:00,
2013-02-21 20:09:00,33.8,17.6,17.60,West,259,0.0,0.0,51,0.00,,OVC055,0.00,VWS V14.01,2013-02-22 01:09:00,
2013-02-21 20:14:00,33.8,17.6,17.60,WSW,248,0.0,0.0,51,0.00,,OVC055,0.00,VWS V14.01,2013-02-22 01:14:00,
2013-02-21 20:19:00,33.6,18.8,17.60,West,265,0.0,0.0,54,0.00,,OVC055,0.00,VWS V14.01,2013-02-22 01:19:00,
2013-02-21 20:24:00,33.6,18.8,17.60,West,265,0.0,0.0,54,0.00,,OVC055,0.00,VWS V14.01,2013-02-22 01:24:00,
2013-02-21 20:29:00,33.6,18.8,17.60,West,262,0.0,0.0,54,0.00,,OVC055,0.00,VWS V14.01,2013-02-22 01:29:00,
2013-02-21 20:34:00,33.6,18.8,17.60,West,262,0.0,0.0,54,0.00,,OVC055,0.00,VWS V14.01,2013-02-22 01:34:00,
2013-02-21 20:39:00,33.4,18.6,17.60,West,268,0.0,0.0,54,0.00,,OVC055,0.00,VWS V14.01,2013-02-22 01:39:00,
2013-02-21 20:44:00,33.4,18.6,17.60,West,268,0.0,0.0,54,0.00,,OVC055,0.00,VWS V14.01,2013-02-22 01:44:00,
2013-02-21 20:49:00,33.6,18.8,17.60,WSW,254,0.0,0.0,54,0.00,,OVC055,0.00,VWS V14.01,2013-02-22 01:49:00,
2013-02-21 20:54:00,33.6,18.8,17.60,West,263,0.0,0.0,54,0.00,,OVC055,0.00,VWS V14.01,2013-02-22 01:54:00,
2013-02-21 20:59:00,33.6,18.8,17.60,West,260,0.0,0.0,54,0.00,,OVC055,0.00,VWS V14.01,2013-02-22 01:59:00,
2013-02-21 21:04:00,33.6,18.8,17.60,WSW,253,0.0,0.0,54,0.00,,OVC055,0.00,VWS V14.01,2013-02-22 02:04:00,
2013-02-21 21:08:00,33.4,18.6,17.60,WSW,256,0.0,0.0,54,0.00,,OVC055,0.00,VWS V14.01,2013-02-22 02:08:00,
2013-02-21 21:13:00,33.3,20.9,17.60,WSW,248,0.0,0.0,60,0.00,,OVC055,0.00,VWS V14.01,2013-02-22 02:13:00,
2013-02-21 21:18:00,33.3,18.4,17.60,West,264,0.0,0.0,54,0.00,,OVC055,0.00,VWS V14.01,2013-02-22 02:18:00,
2013-02-21 21:23:00,33.4,18.6,17.60,West,264,0.0,0.0,54,0.00,,OVC055,0.00,VWS V14.01,2013-02-22 02:23:00,
2013-02-21 21:28:00,33.4,18.6,17.60,West,264,0.0,0.0,54,0.00,,OVC055,0.00,VWS V14.01,2013-02-22 02:28:00,
2013-02-21 21:33:00,33.6,18.8,17.60,West,268,0.0,0.0,54,0.00,,OVC055,0.00,VWS V14.01,2013-02-22 02:33:00,
2013-02-21 21:38:00,33.4,18.6,17.60,WSW,252,0.0,0.0,54,0.00,,OVC055,0.00,VWS V14.01,2013-02-22 02:38:00,
2013-02-21 21:43:00,33.4,18.6,17.60,West,260,0.0,0.0,54,0.00,,OVC055,0.00,VWS V14.01,2013-02-22 02:43:00,
2013-02-21 21:48:00,33.3,18.4,17.60,WSW,244,0.0,0.0,54,0.00,,OVC055,0.00,VWS V14.01,2013-02-22 02:48:00,
2013-02-21 21:53:00,33.3,18.4,17.60,West,260,0.0,0.0,54,0.00,,OVC055,0.00,VWS V14.01,2013-02-22 02:53:00,
2013-02-21 21:58:00,33.3,18.4,17.60,West,262,0.0,0.0,54,0.00,,OVC055,0.00,VWS V14.01,2013-02-22 02:58:00,
2013-02-21 22:03:00,33.3,18.4,17.60,West,261,0.0,0.0,54,0.00,,OVC055,0.00,VWS V14.01,2013-02-22 03:03:00,
2013-02-21 22:08:00,33.3,18.4,17.60,WSW,256,0.0,0.0,54,0.00,,OVC055,0.00,VWS V14.01,2013-02-22 03:08:00,
2013-02-21 22:13:00,33.3,18.4,17.60,West,266,0.0,0.0,54,0.00,,OVC055,0.00,VWS V14.01,2013-02-22 03:13:00,
2013-02-21 22:18:00,33.1,18.3,17.60,West,276,0.0,0.0,54,0.00,,OVC055,0.00,VWS V14.01,2013-02-22 03:18:00,
2013-02-21 22:23:00,32.9,18.1,17.60,West,273,0.0,0.0,54,0.00,,OVC055,0.00,VWS V14.01,2013-02-22 03:23:00,
2013-02-21 22:28:00,32.7,17.9,17.60,West,272,0.0,0.0,54,0.00,,OVC055,0.00,VWS V14.01,2013-02-22 03:28:00,
2013-02-21 22:33:00,32.5,17.8,17.60,West,266,0.0,0.0,54,0.00,,OVC055,0.00,VWS V14.01,2013-02-22 03:33:00,
2013-02-21 22:38:00,32.4,17.6,17.60,West,272,0.0,0.0,54,0.00,,OVC055,0.00,VWS V14.01,2013-02-22 03:38:00,
2013-02-21 22:43:00,32.2,17.4,17.60,West,267,0.0,0.0,54,0.00,,OVC055,0.00,VWS V14.01,2013-02-22 03:43:00,
2013-02-21 22:48:00,32.2,19.9,17.60,WNW,285,0.0,0.0,60,0.00,,OVC055,0.00,VWS V14.01,2013-02-22 03:48:00,
2013-02-21 22:53:00,32.0,17.2,17.60,West,272,0.0,0.0,54,0.00,,OVC055,0.00,VWS V14.01,2013-02-22 03:53:00,
2013-02-21 22:58:00,31.8,17.1,17.60,West,279,0.0,0.0,54,0.00,,OVC055,0.00,VWS V14.01,2013-02-22 03:58:00,
2013-02-21 23:03:00,31.8,17.1,17.60,WNW,286,0.0,0.0,54,0.00,,OVC055,0.00,VWS V14.01,2013-02-22 04:03:00,
2013-02-21 23:08:00,31.8,17.1,17.60,West,278,0.0,0.0,54,0.00,,OVC055,0.00,VWS V14.01,2013-02-22 04:08:00,
2013-02-21 23:13:00,31.8,17.1,17.60,WNW,285,0.0,0.0,54,0.00,,OVC055,0.00,VWS V14.01,2013-02-22 04:13:00,
2013-02-21 23:18:00,31.6,16.9,17.60,WNW,284,0.0,0.0,54,0.00,,OVC055,0.00,VWS V14.01,2013-02-22 04:18:00,
2013-02-21 23:23:00,31.5,16.8,17.60,WNW,284,0.0,0.0,54,0.00,,OVC055,0.00,VWS V14.01,2013-02-22 04:23:00,
2013-02-21 23:28:00,31.3,16.6,17.60,West,267,0.0,0.0,54,0.00,,OVC055,0.00,VWS V14.01,2013-02-22 04:28:00,
2013-02-21 23:33:00,31.1,16.4,17.60,West,276,0.0,0.0,54,0.00,,OVC055,0.00,VWS V14.01,2013-02-22 04:33:00,
2013-02-21 23:38:00,31.1,16.4,17.60,WNW,282,0.0,0.0,54,0.00,,OVC055,0.00,VWS V14.01,2013-02-22 04:38:00,
2013-02-21 23:43:00,30.9,16.2,17.60,West,281,0.0,0.0,54,0.00,,OVC055,0.00,VWS V14.01,2013-02-22 04:43:00,
2013-02-21 23:48:00,30.7,16.1,17.60,WNW,283,0.0,0.0,54,0.00,,OVC055,0.00,VWS V14.01,2013-02-22 04:48:00,
2013-02-21 23:53:00,30.6,15.9,17.60,WNW,290,0.0,0.0,54,0.00,,OVC055,0.00,VWS V14.01,2013-02-22 04:53:00,
2013-02-21 23:58:00,30.6,18.3,17.60,WNW,286,0.0,0.0,60,0.00,,OVC055,0.00,VWS V14.01,2013-02-22 04:58:00,